Florence, KY

10:14 PM EST on December 04, 2016 (GMT -0500)
Cincinnati-Northern KY International

Weather History for KCVG - September, 2013

Change the Weather History Date:

Sunday, September 8, 2013

  Actual Average Record
Temperature  
Mean Temperature 77 °F 71 °F  
Max Temperature 88 °F 81 °F 101 °F (1939)
Min Temperature 65 °F 60 °F 44 °F (1956)
Degree Days  
Heating Degree Days 0 1  
Month to date heating degree days 0 2  
Since 1 July heating degree days 4 2  
Cooling Degree Days 12 6  
Month to date cooling degree days 60 58  
Year to date cooling degree days 1036 1026  
Growing Degree Days 26 (Base 50)    
Moisture  
Dew Point 67 °F    
Average Humidity 73    
Maximum Humidity 100    
Minimum Humidity 46    
Precipitation  
Precipitation T in 0.09 in 1.56 in (1950)
Month to date precipitation 0.01 0.69  
Year to date precipitation 33.06 30.48  
Snow  
Snow 0.00 in 0.00 in 0.00 in ()
Month to date snowfall 0.0 0.0  
Since 1 July snowfall 0.0 0.0  
Since 1 September snowfall 0.0 0.0  
Snow Depth 0.00 in    
Sea Level Pressure  
Sea Level Pressure 29.96 in    
Wind  
Wind Speed 3 mph (WSW)    
Max Wind Speed 14 mph    
Max Gust Speed 15 mph    
Visibility 8 miles    
Events      
T = Trace of Precipitation, MM = Missing Value Source: NWS Daily Summary

Daily Weather History Graph

Daily Weather History Graph

Search for Another Location

Airport or City:

Trip Planner

Search our weather history database for the weather conditions in past years. The results will help you decide how hot, cold, wet, or windy it might be!

Date:

Astronomy

Sep. 08, 2013 Rise Set
Actual Time 7:13 AM EDT 7:57 PM EDT
Civil Twilight 6:46 AM EDT 8:24 PM EDT
Nautical Twilight 6:14 AM EDT 8:56 PM EDT
Astronomical Twilight 5:41 AM EDT 9:29 PM EDT
Moon 10:28 AM EDT (9/8) 9:34 PM EDT (9/8)
Length of Visible Light 13h 37m
Length of Day
12h 43m
Waxing Crescent, 11% of the Moon is Illuminated
Sep 8
Waxing Crescent
Sep 12
First Quarter
Sep 19
Full
Sep 26
Last Quarter
Oct 4
New

Hourly Weather History & Observations

Time (EDT) Temp. Heat Index Dew Point Humidity Pressure Visibility Wind Dir Wind Speed Gust Speed Precip Events Conditions
12:52 AM 73.0 °F - 66.9 °F 81% 29.96 in 10.0 mi Calm Calm - N/A   Overcast
1:52 AM 72.0 °F - 66.9 °F 84% 29.96 in 9.0 mi SW 3.5 mph - 0.00 in   Overcast
2:52 AM 69.1 °F - 68.0 °F 96% 29.96 in 6.0 mi Calm Calm - N/A   Overcast
3:52 AM 68.0 °F - 66.9 °F 96% 29.95 in 4.0 mi Calm Calm - N/A   Overcast
4:52 AM 68.0 °F - 66.9 °F 96% 29.95 in 4.0 mi SSW 3.5 mph - N/A   Scattered Clouds
5:16 AM 66.2 °F - 66.2 °F 100% 29.98 in 2.5 mi SSW 4.6 mph - N/A   Clear
5:28 AM 66.2 °F - 66.2 °F 100% 29.98 in 5.0 mi SSW 3.5 mph - N/A   Clear
5:52 AM 68.0 °F - 66.0 °F 93% 29.96 in 5.0 mi Calm Calm - N/A   Clear
6:52 AM 66.0 °F - 64.9 °F 96% 29.96 in 4.0 mi Calm Calm - N/A   Scattered Clouds
7:52 AM 66.9 °F - 66.0 °F 97% 29.98 in 4.0 mi WSW 3.5 mph - N/A   Scattered Clouds
8:52 AM 71.1 °F - 69.1 °F 93% 29.98 in 4.0 mi Calm Calm - N/A   Scattered Clouds
9:52 AM 77.0 °F - 68.0 °F 74% 29.99 in 9.0 mi West 3.5 mph - N/A   Partly Cloudy
10:52 AM 81.0 °F 83.3 °F 66.9 °F 62% 29.98 in 10.0 mi Calm Calm - N/A   Clear
11:52 AM 82.9 °F 85.4 °F 66.9 °F 58% 29.98 in 10.0 mi North 8.1 mph - N/A   Clear
12:52 PM 84.9 °F 87.1 °F 66.0 °F 53% 29.97 in 10.0 mi NNW 4.6 mph - N/A   Partly Cloudy
1:52 PM 84.9 °F 86.1 °F 64.0 °F 49% 29.97 in 10.0 mi West 3.5 mph - 0.00 in   Mostly Cloudy
2:52 PM 86.0 °F 87.6 °F 64.9 °F 49% 29.96 in 10.0 mi West 3.5 mph - N/A   Mostly Cloudy
3:52 PM 87.1 °F 88.9 °F 64.9 °F 48% 29.94 in 10.0 mi Variable 3.5 mph - N/A   Scattered Clouds
4:52 PM 88.0 °F 90.3 °F 66.0 °F 48% 29.93 in 10.0 mi WSW 6.9 mph - N/A   Scattered Clouds
5:52 PM 87.1 °F 88.9 °F 64.9 °F 48% 29.93 in 10.0 mi Calm Calm - N/A   Scattered Clouds
6:52 PM 84.0 °F 87.0 °F 68.0 °F 58% 29.93 in 10.0 mi SW 4.6 mph - N/A   Scattered Clouds
7:52 PM 81.0 °F 83.3 °F 66.9 °F 62% 29.94 in 10.0 mi SW 3.5 mph - N/A   Scattered Clouds
8:52 PM 77.0 °F - 69.1 °F 76% 29.95 in 10.0 mi South 3.5 mph - N/A   Scattered Clouds
9:52 PM 78.1 °F - 68.0 °F 71% 29.95 in 10.0 mi West 3.5 mph - N/A   Scattered Clouds
10:52 PM 78.1 °F - 69.1 °F 74% 29.97 in 10.0 mi East 9.2 mph - N/A   Mostly Cloudy
11:52 PM 77.0 °F - 69.1 °F 76% 29.98 in 10.0 mi East 6.9 mph - N/A   Scattered Clouds